Time,TemperatureF,DewpointF,PressureIn,WindDirection,WindDirectionDegrees,WindSpeedMPH,WindSpeedGustMPH,Humidity,HourlyPrecipIn,Conditions,Clouds,dailyrainin,SoftwareType,DateUTC
2013-03-19 00:01:00,49.0,49.0,30.23,SE,135,1.0,2.0,99,0.00,,,-99.99,,2013-03-19 07:01:00,
2013-03-19 00:11:00,49.0,49.0,30.23,SE,135,1.0,2.0,99,0.00,,,-99.99,,2013-03-19 07:11:00,
2013-03-19 00:21:00,48.0,48.0,30.22,SE,135,0.0,2.0,99,0.00,,,-99.99,,2013-03-19 07:21:00,
2013-03-19 00:32:00,48.0,48.0,30.21,SE,135,0.0,2.0,99,0.00,,,-99.99,,2013-03-19 07:32:00,
2013-03-19 00:42:00,48.0,48.0,30.21,SE,135,0.0,2.0,99,0.00,,,-99.99,,2013-03-19 07:42:00,
2013-03-19 00:52:00,47.0,47.0,30.22,SE,135,1.0,2.0,99,0.00,,,-99.99,,2013-03-19 07:52:00,
2013-03-19 01:02:00,47.0,47.0,30.22,East,90,1.0,2.0,99,0.00,,,-99.99,,2013-03-19 08:02:00,
2013-03-19 01:12:00,47.0,47.0,30.22,East,90,1.0,2.0,99,0.00,,,-99.99,,2013-03-19 08:12:00,
2013-03-19 01:21:00,47.0,47.0,30.21,SE,135,0.0,2.0,99,0.00,,,-99.99,,2013-03-19 08:21:00,
2013-03-19 01:31:00,46.0,46.0,30.21,SE,135,0.0,2.0,99,0.00,,,-99.99,,2013-03-19 08:31:00,
2013-03-19 01:41:00,46.0,46.0,30.21,SE,135,0.0,2.0,99,0.00,,,-99.99,,2013-03-19 08:41:00,
2013-03-19 01:51:00,46.0,46.0,30.21,SE,135,1.0,2.0,99,0.00,,,-99.99,,2013-03-19 08:51:00,
2013-03-19 02:02:00,46.0,46.0,30.21,SE,135,1.0,2.0,99,0.00,,,-99.99,,2013-03-19 09:02:00,
2013-03-19 02:12:00,46.0,46.0,30.21,SE,135,1.0,2.0,99,0.00,,,-99.99,,2013-03-19 09:12:00,
2013-03-19 02:21:00,45.0,45.0,30.21,SE,135,0.0,0.0,99,0.00,,,-99.99,,2013-03-19 09:21:00,
2013-03-19 02:32:00,45.0,45.0,30.21,SE,135,0.0,2.0,99,0.00,,,-99.99,,2013-03-19 09:32:00,
2013-03-19 02:43:00,45.0,45.0,30.21,SE,135,0.0,2.0,99,0.00,,,-99.99,,2013-03-19 09:43:00,
2013-03-19 02:53:00,45.0,45.0,30.21,SE,135,0.0,2.0,99,0.00,,,-99.99,,2013-03-19 09:53:00,
2013-03-19 03:03:00,44.0,44.0,30.20,East,90,0.0,2.0,99,0.00,,,-99.99,,2013-03-19 10:03:00,
2013-03-19 03:12:00,44.0,44.0,30.20,East,90,0.0,2.0,99,0.00,,,-99.99,,2013-03-19 10:12:00,
2013-03-19 03:23:00,45.0,45.0,30.20,East,90,0.0,1.0,99,0.00,,,-99.99,,2013-03-19 10:23:00,
2013-03-19 03:32:00,44.0,44.0,30.20,East,90,0.0,0.0,99,0.00,,,-99.99,,2013-03-19 10:32:00,
2013-03-19 03:42:00,44.0,44.0,30.20,East,90,0.0,0.0,99,0.00,,,-99.99,,2013-03-19 10:42:00,
2013-03-19 03:52:00,44.0,44.0,30.20,East,90,0.0,0.0,99,0.00,,,-99.99,,2013-03-19 10:52:00,
2013-03-19 04:02:00,45.0,45.0,30.20,SE,135,0.0,0.0,99,0.00,,,-99.99,,2013-03-19 11:02:00,
2013-03-19 04:11:00,45.0,45.0,30.20,SE,135,0.0,0.0,99,0.00,,,-99.99,,2013-03-19 11:11:00,
2013-03-19 04:21:00,45.0,45.0,30.19,SE,135,0.0,0.0,99,0.00,,,-99.99,,2013-03-19 11:21:00,
2013-03-19 04:32:00,44.0,44.0,30.17,NW,315,0.0,0.0,99,0.00,,,-99.99,,2013-03-19 11:32:00,
2013-03-19 04:41:00,44.0,44.0,30.17,NW,315,0.0,0.0,99,0.00,,,-99.99,,2013-03-19 11:41:00,
2013-03-19 04:52:00,44.0,44.0,30.17,East,90,1.0,3.0,99,0.00,,,-99.99,,2013-03-19 11:52:00,
2013-03-19 05:02:00,44.0,44.0,30.17,SE,135,0.0,2.0,99,0.00,,,-99.99,,2013-03-19 12:02:00,
2013-03-19 05:12:00,44.0,44.0,30.17,SE,135,0.0,0.0,99,0.00,,,-99.99,,2013-03-19 12:12:00,
2013-03-19 05:21:00,44.0,44.0,30.17,SE,135,0.0,0.0,99,0.00,,,-99.99,,2013-03-19 12:21:00,
2013-03-19 05:32:00,44.0,44.0,30.17,SE,135,0.0,0.0,99,0.00,,,-99.99,,2013-03-19 12:32:00,
2013-03-19 05:42:00,44.0,44.0,30.17,SE,135,0.0,0.0,99,0.00,,,-99.99,,2013-03-19 12:42:00,
2013-03-19 05:51:00,43.0,43.0,30.18,SE,135,0.0,0.0,99,0.00,,,-99.99,,2013-03-19 12:51:00,
2013-03-19 06:02:00,43.0,43.0,30.19,North,360,0.0,0.0,99,0.00,,,-99.99,,2013-03-19 13:02:00,
2013-03-19 06:11:00,43.0,43.0,30.19,North,360,0.0,0.0,99,0.00,,,-99.99,,2013-03-19 13:11:00,
2013-03-19 06:22:00,43.0,43.0,30.19,SE,135,0.0,0.0,99,0.00,,,-99.99,,2013-03-19 13:22:00,
2013-03-19 06:31:00,43.0,43.0,30.19,SE,135,0.0,0.0,99,0.00,,,-99.99,,2013-03-19 13:31:00,
2013-03-19 06:42:00,43.0,43.0,30.19,SE,135,0.0,0.0,99,0.00,,,-99.99,,2013-03-19 13:42:00,
2013-03-19 06:52:00,42.0,42.0,30.19,SE,135,0.0,0.0,99,0.00,,,-99.99,,2013-03-19 13:52:00,
2013-03-19 07:01:00,42.0,42.0,30.19,SE,135,0.0,0.0,99,0.00,,,-99.99,,2013-03-19 14:01:00,
2013-03-19 07:11:00,42.0,42.0,30.19,SE,135,0.0,0.0,99,0.00,,,-99.99,,2013-03-19 14:11:00,
2013-03-19 07:21:00,42.0,42.0,30.20,SE,135,0.0,0.0,99,0.00,,,-99.99,,2013-03-19 14:21:00,
2013-03-19 07:31:00,42.0,42.0,30.21,SE,135,0.0,0.0,99,0.00,,,-99.99,,2013-03-19 14:31:00,
2013-03-19 07:41:00,42.0,42.0,30.21,SE,135,0.0,0.0,99,0.00,,,-99.99,,2013-03-19 14:41:00,
2013-03-19 07:52:00,42.0,42.0,30.21,North,360,0.0,0.0,99,0.00,,,-99.99,,2013-03-19 14:52:00,
2013-03-19 08:01:00,42.0,42.0,30.21,SE,135,0.0,0.0,99,0.00,,,-99.99,,2013-03-19 15:01:00,
2013-03-19 08:11:00,42.0,42.0,30.21,SE,135,0.0,0.0,99,0.00,,,-99.99,,2013-03-19 15:11:00,
2013-03-19 08:22:00,43.0,43.0,30.22,SE,135,0.0,0.0,99,0.00,,,-99.99,,2013-03-19 15:22:00,
2013-03-19 08:33:00,43.0,43.0,30.22,SE,135,0.0,0.0,99,0.00,,,-99.99,,2013-03-19 15:33:00,
2013-03-19 08:43:00,43.0,43.0,30.22,SE,135,0.0,0.0,99,0.00,,,-99.99,,2013-03-19 15:43:00,
2013-03-19 08:53:00,44.0,44.0,30.22,North,360,0.0,0.0,99,0.00,,,-99.99,,2013-03-19 15:53:00,
2013-03-19 09:03:00,44.0,44.0,30.22,North,360,0.0,0.0,99,0.00,,,-99.99,,2013-03-19 16:03:00,
2013-03-19 09:13:00,44.0,44.0,30.22,North,360,0.0,0.0,99,0.00,,,-99.99,,2013-03-19 16:13:00,
2013-03-19 09:23:00,49.0,49.0,30.22,East,90,0.0,0.0,99,0.00,,,-99.99,,2013-03-19 16:23:00,
2013-03-19 09:34:00,53.0,53.0,30.22,East,90,0.0,0.0,99,0.00,,,-99.99,,2013-03-19 16:34:00,
2013-03-19 10:02:00,58.0,58.0,30.22,West,270,1.0,2.0,99,0.00,,,-99.99,,2013-03-19 17:02:00,
2013-03-19 10:13:00,58.0,53.0,30.24,NW,315,2.0,4.0,82,0.00,,,-99.99,,2013-03-19 17:13:00,
2013-03-19 10:23:00,58.0,53.0,30.24,NW,315,2.0,4.0,82,0.00,,,-99.99,,2013-03-19 17:23:00,
2013-03-19 10:34:00,60.0,51.0,30.24,North,360,2.0,5.0,73,0.00,,,-99.99,,2013-03-19 17:34:00,
2013-03-19 10:43:00,60.0,51.0,30.24,North,360,2.0,5.0,73,0.00,,,-99.99,,2013-03-19 17:43:00,
2013-03-19 10:53:00,60.0,48.0,30.23,West,270,2.0,5.0,64,0.00,,,-99.99,,2013-03-19 17:53:00,
2013-03-19 11:02:00,61.0,49.0,30.24,SW,225,2.0,4.0,64,0.00,,,-99.99,,2013-03-19 18:02:00,
2013-03-19 11:13:00,61.0,49.0,30.24,SW,225,2.0,4.0,64,0.00,,,-99.99,,2013-03-19 18:13:00,
2013-03-19 11:22:00,61.0,49.0,30.23,WSW,248,1.0,4.0,65,0.00,,,-99.99,,2013-03-19 18:22:00,
2013-03-19 11:33:00,64.0,47.0,30.22,NW,315,0.0,4.0,55,0.00,,,-99.99,,2013-03-19 18:33:00,
2013-03-19 11:42:00,64.0,47.0,30.22,NW,315,0.0,4.0,55,0.00,,,-99.99,,2013-03-19 18:42:00,
2013-03-19 11:52:00,64.0,48.0,30.22,West,270,0.0,5.0,56,0.00,,,-99.99,,2013-03-19 18:52:00,
2013-03-19 12:02:00,63.0,48.0,30.23,NW,315,3.0,8.0,57,0.00,,,-99.99,,2013-03-19 19:02:00,
2013-03-19 12:11:00,63.0,48.0,30.23,NW,315,3.0,8.0,57,0.00,,,-99.99,,2013-03-19 19:11:00,
2013-03-19 12:21:00,62.0,45.0,30.23,NW,315,4.0,9.0,53,0.00,,,-99.99,,2013-03-19 19:21:00,
2013-03-19 12:31:00,64.0,42.0,30.22,West,270,4.0,9.0,45,0.00,,,-99.99,,2013-03-19 19:31:00,
2013-03-19 12:42:00,64.0,42.0,30.22,West,270,4.0,9.0,45,0.00,,,-99.99,,2013-03-19 19:42:00,
2013-03-19 12:53:00,64.0,42.0,30.22,West,270,4.0,9.0,45,0.00,,,-99.99,,2013-03-19 19:53:00,
2013-03-19 13:02:00,65.0,41.0,30.22,NW,315,3.0,10.0,42,0.00,,,-99.99,,2013-03-19 20:02:00,
2013-03-19 13:11:00,66.0,40.0,30.22,NW,315,3.0,8.0,39,0.00,,,-99.99,,2013-03-19 20:11:00,
2013-03-19 13:22:00,66.0,40.0,30.22,NW,315,3.0,8.0,39,0.00,,,-99.99,,2013-03-19 20:22:00,
2013-03-19 13:32:00,69.0,31.0,30.22,South,180,1.0,5.0,24,0.00,,,-99.99,,2013-03-19 20:32:00,
2013-03-19 14:02:00,69.0,33.0,30.21,West,270,4.0,8.0,26,0.00,,,-99.99,,2013-03-19 21:02:00,
2013-03-19 14:11:00,69.0,33.0,30.21,NW,315,6.0,8.0,26,0.00,,,-99.99,,2013-03-19 21:11:00,
2013-03-19 14:33:00,67.0,31.0,30.21,SW,225,5.0,9.0,26,0.00,,,-99.99,,2013-03-19 21:33:00,
2013-03-19 14:52:00,65.0,38.0,30.21,WNW,292,4.0,12.0,37,0.00,,,-99.99,,2013-03-19 21:52:00,
2013-03-19 15:02:00,65.0,38.0,30.21,WNW,292,4.0,12.0,37,0.00,,,-99.99,,2013-03-19 22:02:00,
2013-03-19 15:12:00,65.0,38.0,30.21,WNW,292,4.0,12.0,37,0.00,,,-99.99,,2013-03-19 22:12:00,
2013-03-19 15:22:00,63.0,35.0,30.21,West,270,3.0,9.0,35,0.00,,,-99.99,,2013-03-19 22:22:00,
2013-03-19 15:33:00,62.0,37.0,30.21,WNW,292,4.0,9.0,39,0.00,,,-99.99,,2013-03-19 22:33:00,
2013-03-19 15:43:00,62.0,37.0,30.21,NW,315,1.0,9.0,40,0.00,,,-99.99,,2013-03-19 22:43:00,
2013-03-19 15:53:00,62.0,37.0,30.21,NW,315,1.0,9.0,40,0.00,,,-99.99,,2013-03-19 22:53:00,
2013-03-19 16:02:00,65.0,33.0,30.21,SSE,158,1.0,5.0,30,0.00,,,-99.99,,2013-03-19 23:02:00,
2013-03-19 16:21:00,62.0,38.0,30.22,North,360,4.0,12.0,41,0.00,,,-99.99,,2013-03-19 23:21:00,
2013-03-19 16:32:00,60.0,50.0,30.22,NW,315,2.0,11.0,69,0.00,,,-99.99,,2013-03-19 23:32:00,
2013-03-19 16:43:00,60.0,50.0,30.22,NW,315,2.0,11.0,69,0.00,,,-99.99,,2013-03-19 23:43:00,
2013-03-19 16:52:00,60.0,50.0,30.22,SE,135,2.0,7.0,69,0.00,,,-99.99,,2013-03-19 23:52:00,
2013-03-19 17:02:00,58.0,52.0,30.22,NW,315,2.0,6.0,79,0.00,,,-99.99,,2013-03-20 00:02:00,
2013-03-19 17:12:00,58.0,52.0,30.22,NW,315,2.0,6.0,79,0.00,,,-99.99,,2013-03-20 00:12:00,
2013-03-19 17:22:00,56.0,54.0,30.23,NE,45,1.0,6.0,94,0.00,,,-99.99,,2013-03-20 00:22:00,
2013-03-19 17:32:00,56.0,55.0,30.24,NE,45,2.0,10.0,97,0.00,,,-99.99,,2013-03-20 00:32:00,
2013-03-19 17:42:00,56.0,55.0,30.24,NE,45,2.0,10.0,97,0.00,,,-99.99,,2013-03-20 00:42:00,
2013-03-19 17:52:00,56.0,56.0,30.24,SE,135,2.0,6.0,99,0.00,,,-99.99,,2013-03-20 00:52:00,
2013-03-19 18:01:00,56.0,56.0,30.24,North,360,0.0,2.0,100,0.00,,,-99.99,,2013-03-20 01:01:00,
2013-03-19 18:22:00,57.0,56.0,30.25,SE,135,1.0,2.0,95,0.00,,,-99.99,,2013-03-20 01:22:00,
2013-03-19 18:32:00,57.0,55.0,30.24,East,90,2.0,6.0,94,0.00,,,-99.99,,2013-03-20 01:32:00,
2013-03-19 18:52:00,56.0,56.0,30.26,East,90,2.0,7.0,99,0.00,,,-99.99,,2013-03-20 01:52:00,
2013-03-19 19:02:00,56.0,56.0,30.27,North,360,1.0,3.0,99,0.00,,,-99.99,,2013-03-20 02:02:00,
2013-03-19 19:11:00,56.0,56.0,30.27,North,360,1.0,3.0,99,0.00,,,-99.99,,2013-03-20 02:11:00,
2013-03-19 19:21:00,54.0,54.0,30.27,SE,135,0.0,2.0,99,0.00,,,-99.99,,2013-03-20 02:21:00,
2013-03-19 19:31:00,54.0,54.0,30.26,SE,135,0.0,2.0,99,0.02,,,-99.99,,2013-03-20 02:31:00,
2013-03-19 19:42:00,54.0,54.0,30.26,SE,135,0.0,2.0,99,0.02,,,-99.99,,2013-03-20 02:42:00,
2013-03-19 19:52:00,53.0,53.0,30.26,East,90,0.0,2.0,99,0.02,,,-99.99,,2013-03-20 02:52:00,
2013-03-19 20:01:00,52.0,52.0,30.24,East,90,1.0,5.0,99,0.05,,,-99.99,,2013-03-20 03:01:00,
2013-03-19 20:11:00,52.0,52.0,30.24,SE,135,1.0,8.0,99,0.06,,,-99.99,,2013-03-20 03:11:00,
2013-03-19 20:22:00,52.0,52.0,30.24,SE,135,1.0,8.0,99,0.06,,,-99.99,,2013-03-20 03:22:00,
2013-03-19 20:33:00,52.0,52.0,30.22,South,180,4.0,11.0,99,0.05,,,-99.99,,2013-03-20 03:33:00,
2013-03-19 20:42:00,52.0,52.0,30.22,South,180,4.0,11.0,99,0.05,,,-99.99,,2013-03-20 03:42:00,
2013-03-19 20:52:00,51.0,51.0,30.23,SE,135,3.0,11.0,99,0.05,,,-99.99,,2013-03-20 03:52:00,
2013-03-19 21:02:00,51.0,51.0,30.22,South,180,3.0,9.0,99,0.02,,,-99.99,,2013-03-20 04:02:00,
2013-03-19 21:12:00,51.0,51.0,30.22,South,180,3.0,9.0,99,0.02,,,-99.99,,2013-03-20 04:12:00,
2013-03-19 21:22:00,51.0,51.0,30.22,North,360,1.0,7.0,99,0.01,,,-99.99,,2013-03-20 04:22:00,
2013-03-19 21:32:00,51.0,51.0,30.22,SE,135,2.0,2.0,99,0.00,,,-99.99,,2013-03-20 04:32:00,
2013-03-19 21:42:00,51.0,51.0,30.22,SE,135,2.0,2.0,99,0.00,,,-99.99,,2013-03-20 04:42:00,
2013-03-19 21:52:00,51.0,51.0,30.24,SE,135,1.0,2.0,99,0.00,,,-99.99,,2013-03-20 04:52:00,
2013-03-19 22:02:00,51.0,51.0,30.24,SE,135,1.0,2.0,99,0.00,,,-99.99,,2013-03-20 05:02:00,
2013-03-19 22:12:00,51.0,51.0,30.24,East,90,1.0,2.0,99,0.00,,,-99.99,,2013-03-20 05:12:00,
2013-03-19 22:22:00,51.0,51.0,30.24,East,90,1.0,2.0,99,0.00,,,-99.99,,2013-03-20 05:22:00,
2013-03-19 22:31:00,51.0,51.0,30.23,NE,45,1.0,2.0,99,0.00,,,-99.99,,2013-03-20 05:31:00,
2013-03-19 22:42:00,51.0,51.0,30.23,NE,45,1.0,2.0,99,0.00,,,-99.99,,2013-03-20 05:42:00,
2013-03-19 22:52:00,51.0,51.0,30.22,SE,135,0.0,2.0,99,0.00,,,-99.99,,2013-03-20 05:52:00,
2013-03-19 23:02:00,51.0,51.0,30.22,East,90,2.0,3.0,99,0.00,,,-99.99,,2013-03-20 06:02:00,
2013-03-19 23:12:00,51.0,51.0,30.22,East,90,2.0,3.0,99,0.00,,,-99.99,,2013-03-20 06:12:00,
2013-03-19 23:21:00,51.0,51.0,30.21,West,270,0.0,4.0,99,0.00,,,-99.99,,2013-03-20 06:21:00,
2013-03-19 23:31:00,51.0,51.0,30.20,SE,135,0.0,2.0,99,0.00,,,-99.99,,2013-03-20 06:31:00,
2013-03-19 23:43:00,51.0,51.0,30.20,SE,135,0.0,2.0,99,0.00,,,-99.99,,2013-03-20 06:43:00,
2013-03-19 23:52:00,51.0,51.0,30.21,SE,135,0.0,2.0,99,0.00,,,-99.99,,2013-03-20 06:52:00,